Regional Weather Roundup
Issued by NWS

Home | Current Version | Previous Version | Text Only | Print | Product List | Glossary On
Versions: 1 2 3 4 5 6 7 8 9 10 11 12 13 14 15 16 17 18 19 20 21 22 23 24 25 26 27 28 29 30 31 32 33 34 35 36 37 38 39 40 41 42 43 44 45 46 47 48 49 50
000
ASUS44 KLUB 251910
RWRTX
WEST TEXAS WEATHER ROUNDUP
NATIONAL WEATHER SERVICE LUBBOCK TX
100 PM CST SUN JAN 25 2015

NOTE: "FAIR" INDICATES FEW OR NO CLOUDS BELOW 12,000 FEET WITH NO
SIGNIFICANT WEATHER AND/OR OBSTRUCTIONS TO VISIBILITY.

TXZ004-006>008-010-012-014-016-OKZ002-252000-
TEXAS PANHANDLE/OKLAHOMA PANHANDLE

CITY           SKY/WX    TMP DP  RH WIND       PRES   REMARKS
AMARILLO       SUNNY     47  28  47 NW16G23   30.22S
BORGER         SUNNY     52  29  41 NW17G26   30.20F
CANADIAN       SUNNY     56  27  32 NW22G30   30.14F
DALHART        SUNNY     46  32  58 W9        30.24S
DUMAS          SUNNY     42  30  63 NW14      30.22S
GUYMON         SUNNY     57  30  35 N26G32    30.15F
HEREFORD       SUNNY     47  34  59 NW12      30.24F
PAMPA          SUNNY     49  31  49 N20G26    30.18F
PERRYTON         N/A     54  28  36 N24G32    30.14F
$$

TXZ026-029-035-045-048-252000-
SOUTHERN PANHANDLE/SOUTH PLAINS/ROLLING PLAINS

CITY           SKY/WX    TMP DP  RH WIND       PRES   REMARKS
CHILDRESS      SUNNY     60  25  26 N22G31    30.16F
SEMINOLE       MOSUNNY   56  25  29 CALM      30.28R
LUBBOCK        MOSUNNY   57  27  31 N12G23    30.22F
PLAINVIEW      SUNNY     55  27  33 N18G25    30.20F
SNYDER         SUNNY    N/A N/A N/A N16       30.21F
$$

TXZ052-054-060>062-072-078-127-140-154-169-252000-
PERMIAN BASIN/CONCHO VALLEY/BIG COUNTRY/EDWARDS PLATEAU

CITY           SKY/WX    TMP DP  RH WIND       PRES   REMARKS
ABILENE        SUNNY     60  31  33 NW15G23   30.17F
BIG SPRING     MOSUNNY   61  23  23 N14       30.25F
BRADY          SUNNY     63  32  31 NW14      30.16R
BROWNWOOD      SUNNY     64  25  22 N13G28    30.14S
JUNCTION       SUNNY     65  32  29 N9        30.16F
MIDLAND        MOSUNNY   58  22  24 NE12      30.25F
ODESSA         MOSUNNY   57  23  26 NE10      30.26F
SAN ANGELO     SUNNY     63  30  28 N9        30.19F
SONORA         SUNNY     63  30  29 NE9G16    30.24F
SWEETWATER     SUNNY     58  28  31 N14       30.22F
WINK           MOSUNNY   63  16  16 NE12      30.26F
$$

TXZ055-058-074-075-080-082-252000-
FAR WEST/SOUTHWEST MOUNTAINS/TRANS PECOS

CITY           SKY/WX    TMP DP  RH WIND       PRES   REMARKS
ALPINE         PTSUNNY   51  28  39 E9        30.35F
DRYDEN           N/A     66  29  24 N7        30.24F
EL PASO        PTSUNNY   55  24  30 NE5       30.27F
FORT STOCKTON  SUNNY     57  32  38 VRB5      30.28F
MARFA          PTSUNNY   52  25  35 NE14G21   30.30F
PECOS          SUNNY     56  29  35 NW5       30.29F
PRESIDIO       FAIR      55  30  38 MISG      30.28F
$$

TXZ014-016-019-021>030-083-252000
TEXAS TECH WEST TEXAS MESONET/TEXAS PANHANDLE/NORTHERN SOUTH PLAINS

CITY           SKY/WX    TMP DP  RH WIND       PRES   REMARKS
ABERNATHY 5ENE   N/A     55  28  36 N16       30.22F
AMARILLO 9NNE    N/A     49  30  46 NW16      30.22S
AMARILLO 7SSE    N/A     48  29  48 NW9       30.23S
AMHERST 1NE      N/A     52  30  42 N15       30.24F
BOOTLEG 11WNW    N/A     44  30  56 NW8       30.28S
CANADIAN 6E      N/A     56  26  30 NW25      30.12F
CAPROCK CYN SP   N/A     55  25  31 N9        30.20F
CHILDRESS 2NNE   N/A     58  24  26 NW24      30.14F
CLARENDON 2WSW   N/A     53  25  33 NW16      30.19S
CLAUDE 12SW      N/A     47  31  51 NW13      30.20S
DIMMITT 2NE      N/A     48  28  45 NW15      30.24F
FLOYDADA 2NNE    N/A     54  22  28 N18       30.20F
FRIONA 2NE       N/A     47  28  48 N12       30.26F
GOODLETT 3W      N/A     60  24  24 NW22      30.14S
HART 3N          N/A     51  27  38 N17       30.23F
HEREFORD 2NW     N/A     45  32  60 W9        30.25S
MCLEAN 1E        N/A     48  30  50 NW17      30.14S
MEMPHIS 1NE      N/A     58  25  28 NW18      30.17S
MULESHOE 2SSW    N/A     51  27  39 N12       30.26F
OLTON 6S         N/A     53  28  37 N16       30.22F
PALO DURO SP     N/A     49  28  44 NW10      30.23S
PAMPA 2E         N/A     48  31  51 NW20      30.16F
PLAINVIEW 1S     N/A     53  26  35 N16       30.21F
SILVERTON 7ESE   N/A     51  27  39 NW17      30.20F
TULIA 2ENE       N/A     51  28  40 N18       30.22S
TURKEY 2WSW      N/A     57  24  28 NW18      30.19S
UMBARGER 3NNE    N/A     43  29  59 NW12      30.24S
$$

TXZ033>036-039>041-045>048-252000
TEXAS TECH WEST TEXAS MESONET/SOUTH PLAINS

CITY           SKY/WX    TMP DP  RH WIND       PRES   REMARKS
AIKEN 3WSW       N/A     53  31  44 N16       30.22F
ANDREWS 2NE      N/A     57  21  24 N10       30.26F
ANTON 6SSW       N/A     52  34  50 N12       30.24F
BROWNFIELD 2S    N/A     53  27  35 N13       30.25S
DENVR CTY 7WNW   N/A     55  23  28 N8        30.26F
GAIL 2ESE        N/A     59  25  27 N15       30.21F
LAMESA 2SE       N/A     58  24  28 NE14      30.24F
LEVELLAND 4S     N/A     55  27  34 N14       30.24F
LUBBOCK 3WNW     N/A     56  27  33 N12       30.23F
MORTON 1ENE      N/A     51  34  52 N12       30.25F
ODONNELL 1N      N/A     57  22  26 N17       30.22F
PLAINS 3N        N/A     55  27  33 N8        30.26F
RALLS 1SE        N/A     55  24  30 N17       30.22F
REESE CENTER     N/A     54  29  38 N14       30.23F
SEAGRAVES 1SW    N/A     55  25  31 N12       30.26F
SEMINOLE 2NNE    N/A     56  24  28 N9        30.27S
SLATON 2NE       N/A     55  23  29 N17       30.22F
SNYDER 3E        N/A     60  27  28 N14       30.19F
SUNDOWN 8SW      N/A     55  27  33 N14       30.25F
TAHOKA 3NNE      N/A     58  24  27 N14       30.21F
WOLFFORTH 6SSW   N/A     55  31  40 N14       30.23F
$$

TXZ031-032-036>038-042>044-252000-
TEXAS TECH WEST TEXAS MESONET/ROLLING PLAINS

CITY           SKY/WX    TMP DP  RH WIND       PRES   REMARKS
ASPERMONT 3NE    N/A     62  25  24 NW15      30.17F
FLUVANNA 3WNW    N/A     59  25  27 N14       30.20F
GRAHAM 5SSW      N/A     56  25  29 N16       30.21F
GUTHRIE 10WSW    N/A     61  22  22 N20G30    30.17S
HASKELL 1NW      N/A     60  27  28 N20       30.15F
JAYTON 1SSE      N/A     62  22  21 N17       30.18F
KNOX CITY 3NW    N/A     62  24  23 N16       30.16S
LK A HENRY 1NW   N/A     63  22  21 N16       30.19F
NORTHFIELD 1S    N/A     60  25  26 N17       30.18S
ODELL 4ENE       N/A     61  24  24 NW22      30.12F
PADUCAH 10SW     N/A     61  22  22 N23       30.17R
POST 1NE         N/A     59  24  26 N14       30.21F
RRING SPRGS 3N   N/A     58  23  26 N16       30.18S
SEYMOUR 3NW      N/A     60  27  28 NW21      30.13F
SPUR 1W          N/A     60  21  22 N15G26    30.18F
WEINERT 2NNE     N/A     62  28  27 N21       30.15F
WHITE RVR 6NE    N/A     59  24  26 N20       30.19F
$$

TXZ052-054-060>062-072-078-127-140-154-169-252000-
TEXAS TECH WEST TEXAS MESONET/PERMIAN BASIN/
CONCHO VALLEY/BIG COUNTRY/EDWARDS PLATEAU

CITY           SKY/WX    TMP DP  RH WIND       PRES   REMARKS
COYANOSA 2N      N/A     58  29  33 NW2       30.27F
JUNCTION 1SSW    N/A     65  33  30 N10       30.18S
MERTZON 3NNE     N/A     62  27  26 NE14      30.22S
SAN ANGELO 7NW   N/A     62  25  24 N7        30.20F
STRLNG CT 4WSW   N/A     57  26  29 N7        30.23S
ST LAWRNCE 5SW   N/A     58  31  35 N5        30.23F
SWEETWATR 11SW   N/A     58  29  32 N17       30.21F
WALL 1E          N/A     61  33  35 N12       30.20F
$$

TXZ055-058-074-075-080-082-252000-
TEXAS TECH WEST TEXAS MESONET/FAR WEST/SOUTHWEST MOUNTAINS/TRANS PECOS

CITY           SKY/WX    TMP DP  RH WIND       PRES   REMARKS
PRSMN GAP BBNP   N/A     60  29  31 N7        30.27F
GUADLPE MTN NP   N/A     49  22  34 NE9       30.31F
$$


USA.gov is the U.S. government's official web portal to all federal, state and local government web resources and services.